Simultaneous Nadir Overpasses (SNOs) Predictions

Prediction of SNOs between GOES-16 and LANDSAT-8 Satellite Orbit:

Table of predicted SNOs for the next 14.0 days since TLE Epoch: 10/26/2019
Index Date Time (GOES-16) GOES-16 Lat,Lon LANDSAT-8 Lat,Lon Distance(km) Time Diff (sec)
1 10/26/2019 03:18:46 0.00, -75.19 -0.22, -76.15 109.26 80
2 10/28/2019 03:03:55 0.00, -75.20 0.43, -73.20 227.87 80
3 10/28/2019 15:25:11 -0.00, -75.21 0.65, -78.36 357.14 80
4 10/30/2019 15:12:59 -0.00, -75.23 0.06, -75.39 19.64 80
5 11/01/2019 15:00:48 -0.00, -75.24 -0.60, -72.44 318.58 80
6 11/02/2019 03:24:52 0.00, -75.24 -0.51, -77.63 272.15 80
7 11/04/2019 03:10:01 0.00, -75.26 0.14, -74.68 66.81 80
8 11/06/2019 02:57:49 0.00, -75.29 0.74, -71.71 406.57 80
9 11/06/2019 15:21:45 0.00, -75.31 0.33, -76.87 177.75 80
10 11/08/2019 15:06:54 0.00, -75.35 -0.33, -73.92 162.87 80




NCC Satellite Simultaneous Nadir Overpasses (SNOs) Prediction Service
